Terminal Aerodrome Forecast
Issued by NWS Honolulu, HI

Home | Current Version | Previous Version | Text Only | Print | Product List | Glossary On
Versions: 1 2 3 4 5 6 7 8 9 10 11 12 13 14 15 16 17 18 19 20 21 22 23 24 25 26 27 28 29 30 31 32 33 34 35 36 37 38 39 40 41 42 43 44 45 46 47 48 49 50
000
FTPA31 PHFO 301700
TAFHNL
TAF
PHNL 301739Z 3018/3124 07010KT P6SM VCSH SCT025 BKN050
      TEMPO 3018/3020 -SHRA
     FM302000 08014G22KT P6SM SCT030 BKN050
     FM310500 06008KT P6SM VCSH SCT030 BKN050
     FM312000 16008KT P6SM FEW030 SCT050=

USA.gov is the U.S. government's official web portal to all federal, state and local government web resources and services.